Погода в Березовке

Россия / Красноярский край     56°02′21″N   93°08′31″E
темп.,
°C
ветер,
м/с
пор.,
м/с
влажн.,
%
обл.,
%
осадки,
мм/ч
давл.,
гПа
погр.,
м
15 апреля, чт
чт1501:000сз61298100 5.7 10171018
04:00−1сз499190 1.0 1021579
07:00−2зсз389178 1.0 1025461
10:000з3477100 0.0 1026918
13:00+3з456693 0.1 10261373
16:00+4зюз577077 0.1 10241345
19:00+2юз5108577 0.1 1023614
22:00+3юз5128791 0.0 1022631
16 апреля, пт
пт1601:00+3юз5138490 0.0 1020473
04:00+3юз61484100 0.0 1017491
07:00+4юз61581100 0.0 1016708
10:00+5юз71683100 0.0 1014760
13:00+8юз9157647 0.0 10131186
16:00+9юз9167676 0.0 10101166
19:00+9юз8177599 0.4 10081129
22:00+8зюз81681100 0.2 10071049
17 апреля, сб
сб1701:000сз41097100 4.4 1013752
04:00−1з4992100 0.6 1015781
07:00−4сз598099 0.9 1020918
10:00−3сз4565100 0.1 10231280
13:00−2ссз3455100 0.1 10231349
16:00−1ссв2252100 0.0 10221269
19:00−2всв3468100 0.0 1020448
22:00−3в2676100 0.0 1019353
18 апреля, вс
вс1801:00−3вюв2776100 0.0 1016489
04:00−4вюв257999 0.0 1015438
07:00−3ююз138296 0.0 1016339
10:000з4668100 0.1 10171218
13:00+2з6847100 0.2 10182007
16:00+3з4744100 0.0 10181922
19:00+1ююз2466100 0.1 101991
22:00−1юв2277100 0.0 101824
19 апреля, пн
пн1901:000юв3772100 0.0 1015210
04:000юв51271100 0.0 1011364
07:00+1юв61370100 0.0 1006426
10:00+7ююв71661100 0.0 999963
13:00+11ююз91854100 0.0 9951417
16:00+3зсз71595100 2.5 9981052
19:00+2з7166998 6.3 10011333
22:00−2зюз8167266 0.0 10061317